Jaipur, India

2:31 PM IST on February 21, 2018 (GMT +0530)
Jaipur

Weather History for VIJP - February, 2013

Change the Weather History Date:

Wednesday, February 27, 2013

  Actual Average Record
Temperature  
Mean Temperature 71 °F -  
Max Temperature 82 °F - - ()
Min Temperature 60 °F - - ()
Cooling Degree Days 6    
Growing Degree Days 21 (Base 50)    
Moisture  
Dew Point 44 °F    
Average Humidity 39    
Maximum Humidity 82    
Minimum Humidity 14    
Precipitation  
Precipitation 0.00 in - - ()
Sea Level Pressure  
Sea Level Pressure 29.98 in    
Wind  
Wind Speed 6 mph ()    
Max Wind Speed 15 mph    
Max Gust Speed -    
Visibility 2.5 miles    
Events      
T = Trace of Precipitation, MM = Missing Value Source: Averaged Metar Reports

Daily Weather History Graph

Daily Weather History Graph

Search for Another Location

Airport or City:

Trip Planner

Search our weather history database for the weather conditions in past years. The results will help you decide how hot, cold, wet, or windy it might be!

Date:

Astronomy

Feb. 27, 2013 Rise Set
Actual Time 6:52 AM IST 6:26 PM IST
Civil Twilight 6:29 AM IST 6:49 PM IST
Nautical Twilight 6:02 AM IST 7:16 PM IST
Astronomical Twilight 5:35 AM IST 7:43 PM IST
Moon 8:02 PM IST (2/27) 7:25 AM IST (2/27)
Length of Visible Light 12h 20m
Length of Day
11h 33m
Full, 98% of the Moon is Illuminated
Feb 27
Full
Mar 5
Last Quarter
Mar 12
New
Mar 19
First Quarter
Mar 27
Full

Hourly Weather History & Observations

Time (IST) Temp. Dew Point Humidity Pressure Visibility Wind Dir Wind Speed Gust Speed Precip Events Conditions
2:00 AM 64.4 °F 55.4 °F 73% 29.92 in 1.9 mi East 6.9 mph - N/A   Haze
4:00 AM 62.6 °F 55.4 °F 77% 29.92 in 1.9 mi East 3.5 mph - N/A   Haze
5:00 AM 60.8 °F 55.4 °F 82% 29.92 in 1.9 mi East 3.5 mph - N/A   Haze
6:00 AM 62.6 °F 57.2 °F 82% 29.92 in 1.6 mi Calm Calm - N/A   Haze
8:00 AM 64.4 °F 57.2 °F 77% 29.95 in 1.6 mi NW 5.8 mph - N/A   Mist
11:00 AM 75.2 °F 44.6 °F 34% 30.06 in 3.7 mi NW 8.1 mph - N/A   Unknown
1:00 PM 78.8 °F 44.6 °F 30% 30.04 in 3.7 mi West 9.2 mph - N/A   Unknown
2:00 PM 78.8 °F 41.0 °F 26% 30.01 in 3.7 mi West 12.7 mph - N/A   Unknown
2:30 PM 82 °F 41 °F 14% 29.92 in 2 mi WSW 12.7 mph - -  
3:00 PM 80.6 °F 41.0 °F 24% 29.98 in 3.7 mi West 15.0 mph - N/A   Unknown
4:00 PM 82.4 °F 33.8 °F 17% 29.98 in 3.7 mi West 13.8 mph - N/A   Unknown
5:00 PM 80.6 °F 32.0 °F 17% 29.98 in 3.7 mi West 13.8 mph - N/A   Unknown
5:30 PM 78.8 °F 33.8 °F 20% 29.98 in 3.7 mi WNW 10.4 mph - N/A   Unknown
6:00 PM 78.8 °F 33.8 °F 20% 29.98 in 3.7 mi WNW 10.4 mph - N/A   Unknown
8:00 PM 73.4 °F 37.4 °F 27% 30.01 in 2.5 mi NNW 4.6 mph - N/A   Haze
8:30 PM 73 °F 41 °F 21% 29.96 in 1 mi NW 2.3 mph - -   Haze
9:00 PM 73.4 °F 37.4 °F 27% 30.04 in 1.9 mi Variable 3.5 mph - N/A   Haze
10:00 PM 69.8 °F 41.0 °F 35% 30.04 in 1.9 mi North 4.6 mph - N/A   Haze
11:00 PM 68.0 °F 41.0 °F 37% 30.04 in 1.2 mi Calm Calm - N/A   Haze
11:30 PM 66 °F 46 °F 37% 30.00 in 1 mi Calm Calm - -   Haze